Location: Las Navas
(40.6024°N, 4.3345°W)
Time: 01:18:28
(UTC+00:00)

SPOT 1/Viking Rocket - Pass Details

Date: 03 April 2020
Orbit: 776 x 795 km, 98.5° (Epoch: 26 May)

Event Time Altitude Azimuth Distance (km) Brightness Sun altitude
Exits shadow 21:17:02 42° 34° (NE) 1,130 4.3 -27.5°
Drops below altitude 10° 21:20:56 10° 358° (N) 2,370 6.5 -28.1°
Sets 21:23:20 0° 353° (N) 3,305 7.4 -28.4°
